C/2019 J2 ( Palomar )

Japanese version
Home page
Updated on June 8, 2019

---------------------------------------------------------------------

* Profile

Discovery Date May 9, 2019
Magnitude 16.8 mag
Discoverer Quan-zhi Ye (Palomar)

* Orbital Elements

Epoch 2019 July 16.0 TT = JDT 2458680.5
T 2019 July 19.78354 TT                                 MPCW
q   1.7257418            (2000.0)            P               Q
z  +0.0034780      Peri.   98.76268     -0.02622833     -0.90921160
 +/-0.0022028      Node    25.49873     -0.65367487     -0.29887421
e   0.9939980      Incl.  105.16124     +0.75632086     -0.28984215
From 69 observations 2019 Apr. 27-May 24, mean residual 0".5.

* Finding Charts

* Magnitudes Graph

        m1 = 12.5 + 5 log d + 10.0 log r

---------------------------------------------------------------------

The orbital elements are published on M.P.E.C. 2019-L24.
The charts are made with StellaNavigator Ver.10 (AstroArts).
The magnitudes graphs are made with Comet for Windows.

---------------------------------------------------------------------

Copyright(C) Seiichi Yoshida (comet@aerith.net). All rights reserved.